Regional Weather Roundup
Issued by NWS

Home | Current Version | Previous Version | Graphics & Text | Print | Product List | Glossary On
Versions: 1 2 3 4 5 6 7 8 9 10 11 12 13 14 15 16 17 18 19 20 21 22 23 24 25 26 27 28 29 30 31 32 33 34 35 36 37 38 39 40 41 42 43 44 45 46 47 48 49 50
000
ASUS44 KMEG 011200
RWRTN
TENNESSEE HOURLY STATE WEATHER ROUNDUP
NATIONAL WEATHER SERVICE MEMPHIS TN
700 AM CDT FRI AUG 01 2014

TNZ002-004-019-021-049-052-054-088>092-011300-
WEST TENNESSEE

CITY           SKY/WX    TMP DP  RH WIND       PRES   REMARKS
MEMPHIS INTL   CLOUDY    72  67  84 NE6       30.06S
NWS MEMPHIS      N/A     70 N/A N/A MISG        N/A
JACKSON        CLOUDY    68  65  90 CALM      30.08R
DYERSBURG      MOCLDY    70  57  64 CALM      30.09R
UNION CITY     CLOUDY    66  64  94 CALM      30.07S
PARIS          PTSUNNY   64  63  94 N3        30.09R
LEXINGTON      MOSUNNY   64  63  94 E3        30.07R
SAVANNAH       PTSUNNY   64  64 100 CALM      30.07S
$$

TNZ008-025-027-028-033-062-065-066-011300-
NORTH MIDDLE TENNESSEE

CITY           SKY/WX    TMP DP  RH WIND       PRES   REMARKS
NASHVILLE      MOSUNNY   66  62  87 W3        30.09R
CLARKSVILLE    SUNNY     63  59  87 CALM      30.08S
COOKEVILLE     PTSUNNY   64  63  94 CALM      30.10S
CROSSVILLE     PTSUNNY   64  60  87 CALM      30.14S
$$

TNZ061-075-076-078-094-096-097-011300-
SOUTH MIDDLE TENNESSEE

CITY           SKY/WX    TMP DP  RH WIND       PRES   REMARKS
FAYETTEVILLE   SUNNY     64  61  88 NE10G26   30.09R
TULLAHOMA      SUNNY     63  59  88 CALM      30.11R
WINCHESTER     MOSUNNY   63  63 100 CALM      30.10R
MCMINNVILLE    MOSUNNY   63  63 100 CALM      30.11R
COLUMBIA       SUNNY     64  63  94 CALM      30.07S
SHELBYVILLE    SUNNY     63  63 100 E3        30.10R
$$

TNZ017-018-042-046-047-011300-
NORTHEAST TENNESSEE

CITY           SKY/WX    TMP DP  RH WIND       PRES   REMARKS
TRI CITIES     CLOUDY    66  61  84 CALM      30.15R
ELIZABETHTON   PTSUNNY   63  61  94 E5        30.16R
$$

TNZ012-013-036-069-073-074-011300-
CENTRAL EAST TENNESSEE

CITY           SKY/WX    TMP DP  RH WIND       PRES   REMARKS
KNOXVILLE      MOSUNNY   67  64  90 CALM      30.10R
OAK RIDGE      SUNNY     66  63  90 CALM      30.12R
GATLINBURG     SUNNY     64  63  94 CALM      30.11S
$$

TNZ083-085-099-011300-
SOUTHEAST TENNESSEE

CITY           SKY/WX    TMP DP  RH WIND       PRES   REMARKS
CHATTANOOGA    PTSUNNY   68  64  87 CALM      30.09R
$$

SKY/WX REPORTED AS FAIR MEANS FEW OR NO CLOUDS BELOW
12 THOUSAND FEET.




USA.gov is the U.S. government's official web portal to all federal, state and local government web resources and services.